When you browse on this site, cookies collect data to enhance your experience and personalize the content and advertising you see.
Visit our Privacy Policy to learn more. By continuing to use the site, you agree to this use of cookies and data.
  • In Lithuania
  • List of Countries
  • For 7 days
  • Water Temperature
  • Satellite Maps
  • Weather Map
  • Weather Widgets
  • user-avatar
    Login

    Hourly Weather La-Plata

    Today, 20 February, Wednesday

    Time Temperature Precipitation Wind Pressure Humidity
    00:00 +32°C° 0.1 mm 5 mps 753 mmHg 50%
    01:00 +30°C° 0.1 mm 5 mps 753 mmHg 51%
    02:00 +30°C° 0 mm 5 mps 754 mmHg 50%
    03:00 +29°C° 0 mm 4 mps 754 mmHg 50%
    04:00 +28°C° 0 mm 4 mps 754 mmHg 50%
    05:00 +27°C° 0 mm 3 mps 754 mmHg 50%
    06:00 +29°C° 0 mm 3 mps 754 mmHg 44%
    07:00 +31°C° 0 mm 2 mps 754 mmHg 37%
    08:00 +32°C° 0 mm 2 mps 755 mmHg 31%
    09:00 +36°C° 0 mm 3 mps 755 mmHg 26%
    10:00 +38°C° 0 mm 3 mps 754 mmHg 22%
    11:00 +40°C° 0 mm 3 mps 754 mmHg 17%
    12:00 +42°C° 0 mm 4 mps 754 mmHg 17%
    13:00 +42°C° 0 mm 4 mps 753 mmHg 17%
    14:00 +43°C° 0 mm 4 mps 753 mmHg 16%
    15:00 +42°C° 0 mm 4 mps 753 mmHg 18%
    16:00 +42°C° 0 mm 5 mps 752 mmHg 20%
    17:00 +41°C° 0 mm 5 mps 752 mmHg 22%
    18:00 +40°C° 0 mm 5 mps 752 mmHg 27%
    19:00 +38°C° 0 mm 6 mps 752 mmHg 31%
    20:00 +36°C° 0 mm 6 mps 753 mmHg 35%
    21:00 +35°C° 0 mm 6 mps 753 mmHg 36%
    22:00 +35°C° 0 mm 6 mps 753 mmHg 37%
    23:00 +35°C° 0 mm 7 mps 754 mmHg 38%

    Tomorrow, 21 February, Thursday

    Time Temperature Precipitation Wind Pressure Humidity
    00:00 +34°C° 0 mm 6 mps 754 mmHg 39%
    01:00 +34°C° 0 mm 6 mps 754 mmHg 40%
    02:00 +33°C° 0 mm 5 mps 754 mmHg 41%
    03:00 +32°C° 0 mm 4 mps 755 mmHg 44%
    04:00 +30°C° 0 mm 3 mps 755 mmHg 46%
    05:00 +29°C° 0 mm 2 mps 756 mmHg 49%
    06:00 +30°C° 0 mm 2 mps 757 mmHg 47%
    07:00 +31°C° 0 mm 2 mps 757 mmHg 45%
    08:00 +32°C° 0 mm 2 mps 758 mmHg 44%
    09:00 +35°C° 0 mm 2 mps 758 mmHg 39%
    10:00 +37°C° 0 mm 3 mps 757 mmHg 35%
    11:00 +38°C° 0 mm 4 mps 757 mmHg 30%
    12:00 +40°C° 0 mm 5 mps 756 mmHg 28%
    13:00 +41°C° 0 mm 5 mps 756 mmHg 25%
    14:00 +42°C° 0 mm 5 mps 755 mmHg 23%
    15:00 +41°C° 0 mm 5 mps 754 mmHg 23%
    16:00 +41°C° 0 mm 5 mps 754 mmHg 23%
    17:00 +40°C° 0 mm 5 mps 753 mmHg 23%
    18:00 +39°C° 0 mm 5 mps 754 mmHg 28%
    19:00 +36°C° 0 mm 5 mps 754 mmHg 34%
    20:00 +34°C° 0 mm 4 mps 755 mmHg 39%
    21:00 +34°C° 0 mm 5 mps 755 mmHg 38%
    22:00 +34°C° 0 mm 6 mps 755 mmHg 37%
    23:00 +34°C° 0 mm 7 mps 755 mmHg 36%

    Day after tomorrow, 22 February, Friday

    Time Temperature Precipitation Wind Pressure Humidity
    00:00 +34°C° 0 mm 6 mps 755 mmHg 37%
    01:00 +33°C° 0 mm 6 mps 755 mmHg 39%
    02:00 +32°C° 0 mm 5 mps 755 mmHg 41%
    03:00 +30°C° 0 mm 4 mps 755 mmHg 43%
    04:00 +30°C° 0 mm 3 mps 755 mmHg 46%
    05:00 +29°C° 0 mm 2 mps 755 mmHg 49%
    06:00 +29°C° 0.1 mm 2 mps 756 mmHg 53%
    07:00 +29°C° 0.1 mm 2 mps 756 mmHg 57%
    08:00 +29°C° 0.1 mm 2 mps 756 mmHg 60%
    09:00 +30°C° 0 mm 1 mps 756 mmHg 57%
    10:00 +30°C° 0 mm 1 mps 756 mmHg 54%
    11:00 +31°C° 0 mm 1 mps 756 mmHg 50%
    12:00 +32°C° 0 mm 2 mps 756 mmHg 45%
    13:00 +35°C° 0 mm 2 mps 755 mmHg 40%
    14:00 +37°C° 0 mm 2 mps 755 mmHg 35%
    15:00 +36°C° 0 mm 3 mps 754 mmHg 39%
    16:00 +35°C° 0 mm 4 mps 754 mmHg 42%
    17:00 +34°C° 0 mm 6 mps 754 mmHg 45%
    18:00 +32°C° 0 mm 6 mps 755 mmHg 56%
    19:00 +29°C° 0 mm 7 mps 755 mmHg 66%
    20:00 +26°C° 0 mm 8 mps 756 mmHg 77%
    21:00 +24°C° 1.6 mm 8 mps 756 mmHg 79%
    22:00 +23°C° 1.6 mm 8 mps 757 mmHg 82%
    23:00 +22°C° 1.6 mm 8 mps 757 mmHg 85%

    23 February, Saturday

    Time Temperature Precipitation Wind Pressure Humidity
    00:00 +22°C° 4.7 mm 7 mps 757 mmHg 86%
    01:00 +22°C° 4.7 mm 6 mps 757 mmHg 87%
    02:00 +23°C° 4.7 mm 5 mps 756 mmHg 88%
    03:00 +23°C° 0 mm 4 mps 756 mmHg 88%
    04:00 +23°C° 0 mm 4 mps 756 mmHg 88%
    05:00 +24°C° 0 mm 3 mps 755 mmHg 87%
    06:00 +24°C° 0 mm 3 mps 755 mmHg 86%
    07:00 +24°C° 0 mm 3 mps 755 mmHg 85%
    08:00 +24°C° 0 mm 2 mps 755 mmHg 85%
    09:00 +25°C° 0 mm 3 mps 755 mmHg 79%
    10:00 +26°C° 0 mm 3 mps 755 mmHg 74%
    11:00 +27°C° 0 mm 3 mps 754 mmHg 69%
    12:00 +28°C° 0 mm 3 mps 754 mmHg 64%
    13:00 +30°C° 0 mm 3 mps 753 mmHg 58%
    14:00 +31°C° 0 mm 3 mps 752 mmHg 53%
    15:00 +30°C° 0 mm 3 mps 752 mmHg 57%
    16:00 +29°C° 0 mm 3 mps 751 mmHg 60%
    17:00 +28°C° 0 mm 2 mps 751 mmHg 64%
    18:00 +27°C° 0 mm 2 mps 751 mmHg 69%
    19:00 +26°C° 0 mm 2 mps 751 mmHg 75%
    20:00 +25°C° 0 mm 3 mps 751 mmHg 80%
    21:00 +25°C° 0 mm 2 mps 751 mmHg 83%
    22:00 +25°C° 0 mm 2 mps 751 mmHg 86%
    23:00 +25°C° 0 mm 1 mps 751 mmHg 88%

    24 February, Sunday

    Time Temperature Precipitation Wind Pressure Humidity
    00:00 +24°C° 0 mm 1 mps 750 mmHg 89%
    01:00 +24°C° 0 mm 1 mps 750 mmHg 89%
    02:00 +24°C° 0 mm 1 mps 750 mmHg 90%
    03:00 +23°C° 0 mm 1 mps 750 mmHg 91%
    04:00 +23°C° 0 mm 2 mps 749 mmHg 91%
    05:00 +23°C° 0 mm 2 mps 749 mmHg 92%
    06:00 +22°C° 0 mm 3 mps 750 mmHg 87%
    07:00 +21°C° 0 mm 5 mps 751 mmHg 82%
    08:00 +21°C° 0 mm 6 mps 751 mmHg 77%
    09:00 +23°C° 0 mm 6 mps 752 mmHg 67%
    10:00 +25°C° 0 mm 5 mps 752 mmHg 57%
    11:00 +27°C° 0 mm 5 mps 752 mmHg 47%
    12:00 +27°C° 0 mm 5 mps 752 mmHg 44%
    13:00 +27°C° 0 mm 5 mps 752 mmHg 41%
    14:00 +27°C° 0 mm 5 mps 751 mmHg 38%
    15:00 +27°C° 0 mm 5 mps 751 mmHg 35%
    16:00 +27°C° 0 mm 5 mps 751 mmHg 32%
    17:00 +27°C° 0 mm 5 mps 751 mmHg 29%
    18:00 +25°C° 0 mm 5 mps 752 mmHg 32%
    19:00 +22°C° 0 mm 4 mps 752 mmHg 36%
    20:00 +20°C° 0 mm 4 mps 753 mmHg 40%
    21:00 +20°C° 0 mm 3 mps 753 mmHg 41%
    22:00 +19°C° 0 mm 2 mps 754 mmHg 41%
    23:00 +19°C° 0 mm 2 mps 754 mmHg 42%

    25 February, Monday

    Time Temperature Precipitation Wind Pressure Humidity
    00:00 +18°C° 0 mm 3 mps 754 mmHg 45%
    01:00 +15°C° 0 mm 5 mps 754 mmHg 48%
    02:00 +14°C° 0 mm 6 mps 755 mmHg 50%
    03:00 +13°C° 0 mm 6 mps 755 mmHg 52%
    04:00 +13°C° 0 mm 5 mps 755 mmHg 54%
    05:00 +12°C° 0 mm 5 mps 756 mmHg 56%
    06:00 +13°C° 0 mm 6 mps 757 mmHg 51%
    07:00 +15°C° 0 mm 6 mps 757 mmHg 45%
    08:00 +16°C° 0 mm 7 mps 758 mmHg 40%
    09:00 +17°C° 0 mm 7 mps 758 mmHg 33%
    10:00 +20°C° 0 mm 8 mps 758 mmHg 27%
    11:00 +21°C° 0 mm 9 mps 758 mmHg 20%
    12:00 +22°C° 0 mm 9 mps 758 mmHg 20%
    13:00 +22°C° 0 mm 9 mps 758 mmHg 19%
    14:00 +22°C° 0 mm 9 mps 757 mmHg 19%
    15:00 +22°C° 0 mm 8 mps 757 mmHg 21%
    16:00 +21°C° 0 mm 8 mps 757 mmHg 22%
    17:00 +21°C° 0 mm 7 mps 757 mmHg 24%
    18:00 +19°C° 0 mm 6 mps 758 mmHg 27%
    19:00 +17°C° 0 mm 5 mps 759 mmHg 30%
    20:00 +15°C° 0 mm 4 mps 759 mmHg 33%
    21:00 +15°C° 0 mm 4 mps 759 mmHg 33%
    22:00 +14°C° 0 mm 4 mps 760 mmHg 34%
    23:00 +14°C° 0 mm 4 mps 760 mmHg 35%
    Show more